Regional Weather Roundup
Issued by NWS

Home | Current Version | Previous Version | Graphics & Text | Print | Product List | Glossary On
Versions: 1 2 3 4 5 6 7 8 9 10 11 12 13 14 15 16 17 18 19 20 21 22 23 24 25 26 27 28 29 30 31 32 33 34 35 36 37 38 39 40 41 42 43 44 45 46 47 48 49 50
000
ASUS45 KBOU 282007
RWRCO

WEATHER ROUNDUP FOR COLORADO
NATIONAL WEATHER SERVICE DENVER/BOULDER CO
200 PM MDT FRI APR 28 2017

NOTE: "FAIR" INDICATES FEW OR NO CLOUDS BELOW 12000 FEET WITH NO
SIGNIFICANT WEATHER AND/OR OBSTRUCTIONS TO VISIBILITY.

COZ001>005-013-030-031-282100-
...NORTHWEST COLORADO...

CITY           SKY/WX    TMP DP  RH WIND       PRES   REMARKS
CRAIG          PTSUNNY   42  19  39 CALM      29.76R
HAYDEN         CLOUDY    36  18  48 CALM      29.76R
MEEKER         PTSUNNY   41  28  60 NE20      29.75S
MOUNT WERNER   NOT AVBL
STEAMBOAT SPGS FAIR      37  22  55 CALM      29.75S
WALDEN           N/A     34  19  55 W14G21    29.74R WCI  24
$$

COZ006>008-011-282100-
...WEST CENTRAL VALLEYS...

CITY           SKY/WX    TMP DP  RH WIND       PRES   REMARKS
GRAND JUNCTION FAIR      52  17  25 N15G24    29.74R
MONTROSE       FAIR      46  13  26 NW10G20   29.74F
EAGLE          PTSUNNY   39  12  33 CALM      29.75R
RIFLE          FAIR      45  22  40 W14       29.74R
DELTA          CLOUDY    50  18  28 SW16G28   29.72S
NUCLA          PTSUNNY   43  14  31 W9G16     29.77S
$$

COZ017>023-064>068-282100-
...SOUTHWEST COLORADO...

CITY           SKY/WX    TMP DP  RH WIND       PRES   REMARKS
DURANGO        PTSUNNY   41  24  51 SW14G24   29.72S
CORTEZ         CLOUDY    47  20  34 W12G18    29.73R
PAGOSA SPRINGS LGT SNOW  34  28  76 SW12G17   29.73R WCI  26
TELLURIDE      FLURRIES  29  14  55 NW6G21    29.74R WCI  23
WOLF CREEK PAS SNOW      18  18 100 SW13G24   29.76R VSB 1/2 WCI   4
$$

COZ009-010-012-014-032>034-037-058>063-282100-
...CENTRAL COLORADO...

CITY           SKY/WX    TMP DP  RH WIND       PRES   REMARKS
ASPEN          PTSUNNY   36  23  59 N9G17     29.72S
BUENA VISTA    FAIR      43   6  22 N14       29.66F
COPPER MTN     LGT SNOW  21  10  63 NW3       29.73R
BERTHOUD PASS  LGT SNOW  12   1  62 S6        29.74R VSB 3/4 WCI   3
COTTONWOOD PAS FAIR      39   1  20 NW7       29.68F
GUNNISON       FAIR      38  10  31 N13       29.69S
KREMMLING      FAIR      45  18  33 CALM      29.73S
LEADVILLE      LGT SNOW  25  18  74 NE7       29.72R WCI  17
MONARCH PASS   CLOUDY    19  10  68 SW12G17   29.81R WCI   7
SALIDA         CLOUDY    45  10  23 N6        29.73S
SUNLIGHT       NOT AVBL
WILKERSON PASS CLOUDY    30   3  31 CALM      29.75R
$$

COZ069>075-282100-
...SAN LUIS VALLEY/SANGRE DE CRISTO MOUNTAINS...

CITY           SKY/WX    TMP DP  RH WIND       PRES   REMARKS
ALAMOSA        PTSUNNY   49   9  19 SW20G28   29.61F
LA VETA PASS   PTSUNNY   34  18  51 S9G17     29.82S WCI  26
SAGUACHE       PTSUNNY   41  14  33 SE7       29.67S
$$

COZ035-036-038>040-282100-
...NORTHERN COLORADO FRONT RANGE...

CITY           SKY/WX    TMP DP  RH WIND       PRES   REMARKS
DENVER INTL AP PTSUNNY   50  23  34 E22G30    29.69R
DMNS CITY PARK   N/A     51  19  28 NE12G23   29.69R
AURORA         PTSUNNY   52  21  29 E17G30    29.69R
FRONT RANGE AP PTSUNNY   50  23  34 E13G20    29.71R
ERIE MUNI ARPT CLOUDY    48  23  38 NW14      29.72R
BOULDER MUN AP CLOUDY    43  25  49 NW13      29.73R
CENTENNIAL     PTSUNNY   50  11  20 E13       29.67R
BROOMFIELD     PTSUNNY   50  21  32 N12G17    29.71R
FORT COLLINS   TSTM      39  34  81 N15       29.76R
LONGMONT       CLOUDY    47  28  46 W16G28    29.76R HAZE
$$

COZ041-046-047-076>085-087-088-282100-
...PIKES PEAK/PALMER DIVIDE AND SOUTHERN FOOTHILLS...

CITY           SKY/WX    TMP DP  RH WIND       PRES   REMARKS
COLO. SPRINGS  PTSUNNY   51   6  16 S12       29.66R
A. F. ACADEMY  CLOUDY    46  11  24 N14G22    29.66R
SCHRIEVER AFB  PTSUNNY   49  16  27 SE13G26   29.67R
ELLICOTT       FAIR     N/A N/A N/A E21G33    29.65F
FALCON         FAIR      47  13  25 SE10G17   29.70R
FORT CARSON    PTSUNNY   54  13  19 CALM      29.65R
LIMON          FAIR      53  27  36 E13G21    29.69R
MONUMENT HILL  CLOUDY    41  14  33 S10G17    29.71R
TRINIDAD       PTSUNNY   52  25  35 SW21G29   29.65S
$$

COZ042>045-048>051-090-091-282100-
...NORTHEAST COLORADO...

CITY           SKY/WX    TMP DP  RH WIND       PRES   REMARKS
GREELEY ARPT   NOT AVBL
AKRON          CLOUDY    44  34  67 E20G26    29.75R
BURLINGTON     NOT AVBL
WRAY           NOT AVBL
STERLING       NOT AVBL
HOLYOKE        CLOUDY    37  34  87 E17       29.82R
FORT MORGAN    CLOUDY    45  33  62 NE21      29.76R
$$

COZ086-089-092>099-282100-
...SOUTHEAST COLORADO...

CITY           SKY/WX    TMP DP  RH WIND       PRES   REMARKS
PUEBLO         FAIR      57  18  21 SE18      29.64R
LA JUNTA       FAIR      59  22  24 VRB3      29.66S
LAMAR          CLOUDY    60  36  40 E8        29.65R
SPRINGFIELD      N/A     49  40  71 SW10      29.71R
$$



USA.gov is the U.S. government's official web portal to all federal, state and local government web resources and services.